Location: Newark
(41.8100°N, 15.3400°E)
Time: 04:39:55
(UTC+00:00)

Envisat - Visible Passes

Search period start: 05 April 2020 00:00
Search period end: 15 April 2020 00:00
Orbit: 764 x 766 km, 98.1° (Epoch: 04 April)

Date Brightness Start Highest point End Pass type
(mag) Time Alt. Az. Time Alt. Az. Time Alt. Az.
05 Apr 6.6 04:01:40 10° ENE 04:02:40 11° E 04:03:40 10° E visible
06 Apr 6.0 17:56:25 10° SW 17:59:39 17° W 18:02:54 10° NW visible
11 Apr 6.3 18:12:07 10° WSW 18:13:59 12° W 18:15:51 10° WNW visible
